SCP
0 0 0 0 0 0 0 0 0 0 0 0 0 0 0 0 0 0 0 0 0 0
0 0 0 0 0 0 0 0 0 0 0 0 0 0 0 0 0 0 0 0 0 0
0 0 0 0 0 0 0 0 0 0 0 0 0 0 0 0 0 0 0 0 0 0
0 0 0 0 0 0 0 0 0 0 0 0 0 0 0 0 0 0 0 0 0 0
0 0 0 0 0 0 0 0 0 0 0 0 0 0 0 0 0 0 0 0 0 0
0 0 0 0 0 0 0 0 0 0 0 0 0 0 0 0 0 0 0 0 0 0
0 0 0 0 0 0 0 0 0 0 0 0 0 0 0 0 0 0 0 0 0 0
0 0 0 0 0 0 0 0 0 0 0 0 0 0 0 0 0 0 0 0 0 0
0 0 0 0 0 0 0 0 0 0 0 0 0 0 0 0 0 0 0 0 0 0
0 0 0 0 0 0 0 0 0 0 0 0 0 0 0 0 0 0 0 0 0 0
0 0 0 0 0 0 0 0 0 0 0 0 0 0 0 0 0 0 0 0 0 0
0 0 0 0 0 0 0 0 0 0 0 0 0 0 0 0 0 0 0 0 0 0
0 0 0 0 0 0 0 0 0 0 0 0 0 0 0 0 0 0 0 0 0 0
0 0 0 0 0 0 0 0 0 0 0 0 0 0 0 0 0 0 0 0 0 0
Wind_Speed_500mb
92 90 89 87 87 88 89 85 80 78 77 78 80 74 71 71 68 66 68 70 69 67
93 96 98 95 95 95 92 90 86 81 78 79 79 82 79 78 75 70 67 67 65 64
85 94 98 102 104 102 100 97 94 90 85 80 80 85 89 87 83 76 68 64 59 62
79 85 94 101 105 106 104 102 99 95 90 87 84 83 87 95 88 83 72 68 61 65
59 75 88 95 98 102 106 101 98 95 93 92 92 84 88 94 94 92 83 78 76 64
45 55 71 85 88 87 86 89 87 91 93 96 95 91 85 89 96 101 93 86 79 64
42 45 51 59 73 85 80 79 82 85 87 92 90 91 92 83 89 105 98 90 82 62
42 44 45 47 49 59 73 82 78 81 86 85 86 88 85 94 79 102 101 93 84 72
38 39 42 43 43 46 50 59 77 85 79 80 81 84 82 81 86 99 102 97 81 78
41 41 40 43 46 47 51 52 54 58 65 70 73 75 75 87 82 101 96 96 80 85
40 41 42 42 43 46 50 54 54 56 59 64 65 69 72 69 58 77 88 66 72 80
39 40 41 42 40 39 39 41 44 48 54 60 61 62 52 56 56 74 85 76 78 64
41 42 40 38 37 33 29 29 31 31 36 46 49 51 61 69 60 69 68 66 58 54
46 44 40 35 32 27 30 33 32 31 33 37 39 48 53 57 57 60 64 63 65 64
Wind_Direction_500mb
252 254 256 257 257 256 258 260 260 255 254 254 249 247 245 244 246 247 247 247 251 257
250 252 255 258 258 257 258 259 260 259 254 253 250 246 244 244 244 246 247 245 247 251
251 254 257 258 259 260 261 260 261 261 259 253 251 247 243 242 243 243 244 238 242 252
252 253 254 255 258 260 261 260 260 261 260 258 254 250 246 242 243 241 242 235 241 248
257 253 251 254 256 260 261 262 261 260 257 254 251 251 247 242 239 236 235 233 235 243
278 265 256 253 255 258 262 261 259 256 255 256 254 254 248 250 243 236 235 233 233 242
285 280 272 263 256 254 251 255 257 257 258 258 258 256 255 248 252 237 234 232 231 235
290 285 277 271 266 260 254 250 251 253 255 257 258 258 255 255 255 243 234 233 229 229
287 283 282 278 272 266 261 257 250 250 253 253 254 256 259 263 258 245 236 233 228 221
282 277 276 277 277 276 271 267 260 249 251 255 256 254 255 252 261 239 232 235 229 210
285 280 275 276 280 278 274 269 262 255 247 251 257 258 260 257 247 247 241 239 230 223
280 278 277 279 280 278 277 273 270 263 252 246 248 252 252 245 256 243 233 232 229 226
272 271 270 276 278 279 283 283 279 268 256 248 248 250 252 252 240 237 229 227 221 212
280 274 265 264 270 276 272 271 271 271 266 259 251 256 252 248 232 231 229 221 214 206
Wind_Speed_850mb
92 90 89 87 87 88 89 85 80 78 77 78 80 74 71 71 68 66 68 70 69 67
93 96 98 95 95 95 92 90 86 81 78 79 79 82 79 78 75 70 67 67 65 64
85 94 98 102 104 102 100 97 94 90 85 80 80 85 89 87 83 76 68 64 59 62
79 85 94 101 105 106 104 102 99 95 90 87 84 83 87 95 88 83 72 68 61 65
59 75 88 95 98 102 106 101 98 95 93 92 92 84 88 94 94 92 83 78 76 64
45 55 71 85 88 87 86 89 87 91 93 96 95 91 85 89 96 101 93 86 79 64
42 45 51 59 73 85 80 79 82 85 87 92 90 91 92 83 89 105 98 90 82 62
42 44 45 47 49 59 73 82 78 81 86 85 86 88 85 94 79 102 101 93 84 72
38 39 42 43 43 46 50 59 77 85 79 80 81 84 82 81 86 99 102 97 81 78
41 41 40 43 46 47 51 52 54 58 65 70 73 75 75 87 82 101 96 96 80 85
40 41 42 42 43 46 50 54 54 56 59 64 65 69 72 69 58 77 88 66 72 80
39 40 41 42 40 39 39 41 44 48 54 60 61 62 52 56 56 74 85 76 78 64
41 42 40 38 37 33 29 29 31 31 36 46 49 51 61 69 60 69 68 66 58 54
46 44 40 35 32 27 30 33 32 31 33 37 39 48 53 57 57 60 64 63 65 64
Wind_Direction_850mb
252 254 256 257 257 256 258 260 260 255 254 254 249 247 245 244 246 247 247 247 251 257
250 252 255 258 258 257 258 259 260 259 254 253 250 246 244 244 244 246 247 245 247 251
251 254 257 258 259 260 261 260 261 261 259 253 251 247 243 242 243 243 244 238 242 252
252 253 254 255 258 260 261 260 260 261 260 258 254 250 246 242 243 241 242 235 241 248
257 253 251 254 256 260 261 262 261 260 257 254 251 251 247 242 239 236 235 233 235 243
278 265 256 253 255 258 262 261 259 256 255 256 254 254 248 250 243 236 235 233 233 242
285 280 272 263 256 254 251 255 257 257 258 258 258 256 255 248 252 237 234 232 231 235
290 285 277 271 266 260 254 250 251 253 255 257 258 258 255 255 255 243 234 233 229 229
287 283 282 278 272 266 261 257 250 250 253 253 254 256 259 263 258 245 236 233 228 221
282 277 276 277 277 276 271 267 260 249 251 255 256 254 255 252 261 239 232 235 229 210
285 280 275 276 280 278 274 269 262 255 247 251 257 258 260 257 247 247 241 239 230 223
280 278 277 279 280 278 277 273 270 263 252 246 248 252 252 245 256 243 233 232 229 226
272 271 270 276 278 279 283 283 279 268 256 248 248 250 252 252 240 237 229 227 221 212
280 274 265 264 270 276 272 271 271 271 266 259 251 256 252 248 232 231 229 221 214 206